Wind_Speed
18 17 16 15 17 19 19 19 19 20 22 21 21 21 23 23 22 22 20 20 21 22 24 25 25 25 25 23 21 18 17 14 11 8 6 6 7 7 6 6 6 7 8 9 10 11 12 12 12 12 12 11 11 10 10 9 9 9 9 10 10 11 12 13 13 13 14 15 15 16 16 17 17 18 19 20 20 20 21 22 22 23 23 23 23
19 18 16 16 17 18 18 18 18 19 20 21 21 21 22 22 20 21 21 20 21 23 24 24 25 26 27 26 24 22 21 20 17 13 9 6 6 7 8 8 8 8 9 10 10 11 11 11 11 11 11 11 11 10 10 10 10 10 10 10 10 11 12 13 13 14 14 16 16 17 17 17 18 19 20 20 21 21 22 22 23 24 24 24 25
21 19 19 19 18 17 17 16 17 18 19 20 21 21 21 23 21 21 22 21 21 22 24 25 25 27 29 29 28 27 25 24 22 18 14 10 7 6 8 9 9 10 10 10 11 11 11 11 11 11 10 10 10 10 10 10 10 10 9 10 11 12 13 13 14 15 16 17 17 16 17 18 19 20 20 21 21 22 22 23 24 24 24 25 26
22 20 20 18 16 16 16 16 18 18 19 20 21 23 23 24 25 23 23 23 23 24 25 25 26 28 29 31 32 31 30 28 26 23 20 16 12 9 8 9 10 11 11 11 11 10 10 10 9 9 9 9 9 9 9 9 9 8 9 10 12 13 13 14 15 16 16 16 16 17 18 18 19 19 20 21 22 23 23 24 24 24 25 26 27
21 22 20 19 17 16 17 17 19 19 20 21 22 24 26 27 27 27 27 26 26 26 25 25 26 27 29 31 32 32 32 30 29 27 24 21 19 15 12 11 11 12 12 12 12 11 10 9 9 8 8 8 8 8 8 8 8 9 11 12 13 14 15 16 16 16 16 16 17 17 18 18 19 19 20 22 23 24 24 24 23 24 25 26 26
23 24 23 22 21 20 20 20 20 21 21 22 22 24 27 28 28 29 30 30 29 27 26 26 26 27 28 30 31 31 31 31 31 31 29 26 24 21 18 16 14 14 14 14 14 13 12 11 11 10 10 10 9 10 10 11 12 13 14 15 15 16 16 16 16 16 16 17 17 18 18 19 19 19 20 23 25 25 24 23 23 24 25 27 27
23 24 25 24 23 23 22 22 22 23 23 24 24 24 25 26 27 28 29 30 30 29 28 28 28 28 28 30 31 30 29 30 31 31 31 29 28 25 23 21 19 19 18 17 16 16 15 14 14 14 14 14 14 14 15 15 16 16 17 17 17 17 16 16 16 17 17 18 18 19 19 19 19 19 21 24 26 25 24 22 23 24 26 27 28
23 23 24 25 24 24 24 24 23 24 25 25 25 25 25 25 26 27 28 28 28 29 29 30 30 29 28 28 29 29 29 30 30 31 30 30 29 28 28 26 24 23 22 21 20 20 19 19 19 19 19 18 18 18 18 18 18 18 18 18 17 16 16 16 17 17 18 18 19 19 19 19 19 20 22 25 26 24 22 21 22 23 25 26 28
24 24 24 24 24 24 24 25 25 25 25 26 26 26 26 26 26 27 28 29 29 30 30 31 31 31 30 29 29 30 31 31 31 31 31 30 30 30 29 29 28 27 26 25 25 24 23 22 22 21 21 21 21 21 20 20 20 19 18 17 16 16 16 16 17 18 19 19 19 19 20 20 20 20 22 25 25 22 20 20 21 23 25 27 30
22 23 24 24 24 24 24 24 25 25 26 26 27 27 27 27 27 27 28 29 31 32 31 31 31 30 31 32 31 32 32 32 33 33 32 32 31 31 30 29 29 28 28 27 26 25 24 23 23 22 22 22 22 22 21 20 19 18 17 16 16 16 17 18 18 19 19 19 20 20 20 20 21 21 22 24 24 21 19 19 20 23 25 28 31
21 22 22 23 23 23 24 24 25 25 26 26 27 27 28 28 28 27 28 29 30 30 31 30 29 28 28 30 31 32 33 32 33 33 34 33 33 32 31 31 30 29 28 28 27 26 25 24 24 24 23 23 22 21 20 19 18 18 17 17 17 17 18 18 19 19 19 20 20 21 21 21 21 21 21 22 23 21 19 18 19 22 25 28 32
20 21 21 22 22 23 23 23 23 24 25 26 26 27 27 28 28 27 27 27 28 29 29 29 29 28 28 27 27 29 32 32 31 32 32 32 32 32 31 32 31 30 29 29 28 27 26 25 24 24 23 22 22 21 20 19 18 18 18 18 18 18 18 18 19 19 19 20 21 22 22 22 21 20 20 22 23 21 18 18 19 21 24 28 32
19 20 20 21 21 22 22 22 22 23 24 25 25 26 26 27 27 27 27 26 27 28 29 29 29 29 29 28 26 27 29 31 30 30 31 31 31 31 31 31 30 30 29 28 28 27 26 25 24 23 23 22 22 21 20 20 19 19 19 19 19 19 19 19 19 19 20 21 22 22 23 23 22 21 20 21 22 22 19 18 19 21 24 28 32
17 18 18 19 20 21 21 21 21 22 23 24 24 24 24 25 27 27 27 27 27 27 28 28 29 29 29 29 28 27 27 28 29 30 31 31 31 31 31 31 30 30 29 28 27 26 26 25 24 24 23 23 22 21 21 20 20 20 20 20 20 20 20 20 20 20 21 22 22 23 23 23 22 22 20 20 22 23 21 19 19 21 24 28 32
15 15 16 17 18 19 20 20 20 21 22 22 22 22 23 24 25 26 26 26 26 26 27 27 28 28 29 29 29 29 28 28 29 30 31 31 30 31 31 30 30 30 29 28 27 26 25 25 24 24 23 22 21 21 20 20 20 20 20 20 20 20 20 21 21 22 23 23 23 23 23 23 23 22 21 20 21 23 24 22 20 21 24 28 32
13 13 14 16 17 17 18 19 19 19 20 20 20 20 21 21 22 23 24 25 25 25 25 26 26 27 28 28 28 28 28 28 28 29 29 29 30 30 29 29 29 28 27 27 26 25 24 24 24 23 22 21 20 19 19 19 19 19 20 20 21 21 22 22 23 24 24 24 23 23 23 23 23 22 21 20 21 23 26 25 21 20 23 28 32
11 11 12 13 14 15 17 18 18 18 19 19 19 19 19 19 19 20 21 22 22 23 23 24 24 25 26 27 27 27 27 27 28 27 27 28 28 28 27 26 26 26 25 24 24 24 23 23 23 22 21 20 20 20 19 20 20 20 20 20 21 22 23 23 24 24 24 24 24 23 23 23 23 23 22 21 21 23 26 27 23 21 23 27 31
10 10 10 11 12 13 14 15 16 17 18 17 17 17 17 17 17 18 19 19 20 20 20 21 22 22 23 24 24 25 25 25 26 26 25 25 25 25 25 24 23 24 24 23 22 22 22 21 21 21 20 20 20 20 20 20 21 21 21 21 22 23 23 23 23 24 24 24 24 23 23 23 23 24 23 22 22 23 26 27 25 22 23 26 30
10 9 9 9 10 11 12 12 13 15 15 15 15 15 15 16 16 16 17 18 18 17 18 19 19 20 20 21 22 22 23 23 24 24 24 24 23 23 23 22 22 22 22 21 21 21 21 20 20 20 20 19 19 19 20 20 20 20 21 22 23 23 23 23 23 23 24 24 24 23 23 23 24 25 25 23 23 23 26 27 24 23 24 26 29
9 9 9 8 9 9 9 10 11 12 13 12 13 13 13 14 14 15 15 16 16 16 16 17 17 17 18 18 19 19 20 21 21 22 22 22 22 22 22 21 21 20 20 20 20 19 19 19 20 19 20 20 19 19 19 19 20 20 21 22 23 23 23 23 23 22 24 25 24 23 22 23 25 26 26 25 24 24 26 26 24 24 24 26 28
8 8 8 8 8 8 8 8 9 11 11 10 11 12 12 12 13 13 13 14 14 14 15 15 15 16 16 16 16 16 17 18 18 19 20 20 20 20 20 20 20 19 19 19 18 18 18 19 19 19 20 20 20 19 19 19 20 20 21 22 22 23 23 23 22 22 23 25 24 22 22 24 25 26 26 26 25 25 26 25 24 24 25 26 28
8 8 7 7 8 8 8 8 8 9 10 10 11 11 11 11 12 12 12 12 12 13 13 14 14 14 14 14 14 14 15 15 16 16 17 18 18 18 18 18 18 18 18 18 18 17 18 18 19 19 20 20 20 20 20 20 20 20 21 21 22 22 23 22 22 22 23 25 25 22 21 24 26 25 26 26 25 25 25 24 24 25 25 26 27
7 7 7 7 7 7 7 7 8 9 9 10 11 11 11 11 11 12 11 11 12 12 12 13 13 12 12 12 12 12 12 13 13 14 15 16 16 16 16 16 17 17 18 17 17 17 17 18 18 19 20 20 20 20 21 21 20 20 20 21 21 22 22 22 22 23 23 25 25 23 21 24 26 25 25 26 25 25 25 24 25 25 25 26 27
5 6 6 6 6 6 6 6 7 8 9 10 10 11 11 11 11 12 12 11 11 12 12 12 12 12 11 11 11 11 11 12 12 13 14 15 15 16 15 15 16 17 17 17 17 17 17 17 17 18 19 20 20 20 21 21 21 21 21 21 22 22 22 22 23 23 24 25 25 23 22 25 26 25 25 25 25 25 25 24 24 24 25 26 27
5 5 5 5 5 6 5 6 7 8 9 9 10 10 11 11 11 12 12 11 11 11 11 11 11 11 11 11 11 11 11 12 12 13 14 14 14 15 15 15 15 16 16 16 17 17 17 16 17 17 19 19 19 20 20 22 22 22 22 22 23 23 23 23 23 24 24 25 25 23 23 25 26 25 25 24 24 24 25 25 24 24 25 26 27
5 4 4 5 5 5 6 6 6 7 8 9 9 10 11 11 11 12 12 12 11 11 11 11 11 11 11 11 11 11 11 12 12 13 13 13 13 14 14 14 15 15 16 16 16 16 15 15 17 18 18 18 19 20 20 21 23 23 23 23 24 25 25 23 24 25 25 25 25 24 24 25 26 25 24 23 23 24 25 25 25 25 26 26 27
4 4 4 4 4 5 6 6 7 7 8 8 9 10 11 12 13 13 13 13 12 12 11 11 11 11 11 11 11 11 11 11 11 11 11 12 12 13 13 13 14 15 15 16 15 15 15 15 17 18 18 18 18 19 19 20 22 23 23 24 25 26 26 24 24 25 25 24 24 24 24 26 26 25 23 22 23 24 25 25 25 26 27 27 27
2 3 3 3 3 4 5 6 7 7 8 8 9 10 12 14 15 15 14 14 13 13 12 12 12 12 12 12 12 11 12 12 11 11 11 11 11 12 12 13 14 14 15 16 16 16 16 15 16 17 17 17 17 17 17 20 21 22 23 24 25 25 25 24 24 25 25 23 24 24 25 26 26 25 23 22 23 24 25 25 26 27 27 27 27
2 1 2 2 2 3 4 5 6 8 8 9 9 9 11 13 15 16 16 15 14 14 13 13 13 14 13 14 14 13 13 13 12 12 12 12 12 12 12 13 14 15 15 15 16 16 16 16 16 17 17 16 17 15 16 18 20 21 22 23 23 24 24 23 23 25 25 23 24 25 26 26 26 24 23 22 22 23 24 25 26 26 27 27 26
3 1 0 1 2 2 2 3 5 7 8 9 9 10 11 13 14 15 16 15 15 14 14 14 14 14 14 15 15 14 14 14 13 13 13 13 13 13 13 14 15 15 15 16 16 16 16 16 17 17 16 16 17 15 14 17 19 20 21 22 22 22 22 22 23 24 24 23 23 25 26 26 25 24 23 22 22 22 23 24 25 25 26 26 26
6 3 1 0 1 1 2 2 4 5 7 8 9 9 10 11 13 14 14 14 14 14 14 14 14 14 14 15 15 15 15 15 15 14 14 14 14 14 14 15 15 15 16 16 16 15 14 15 16 16 15 15 16 16 14 15 18 18 19 20 20 20 20 21 22 23 23 22 23 25 25 25 25 24 23 22 22 21 21 22 24 25 25 26 27
7 6 4 2 1 1 2 2 3 4 5 7 8 9 9 10 11 12 13 13 13 14 14 14 13 13 14 14 14 15 15 15 15 15 15 15 15 15 15 15 15 15 15 15 15 14 13 13 13 13 13 13 14 15 14 15 17 17 17 18 18 18 19 20 21 23 23 22 23 24 25 25 25 24 23 22 22 21 20 21 23 25 26 26 26
9 8 6 4 3 2 2 3 3 4 5 5 6 7 8 9 11 12 13 13 13 13 13 13 13 13 13 13 14 14 14 15 15 15 15 15 15 15 15 16 16 16 16 16 16 15 13 12 12 12 12 12 12 13 14 15 15 16 16 17 17 17 18 19 21 22 22 22 22 23 24 24 24 24 24 23 22 20 19 20 22 25 27 27 27
11 10 9 7 6 4 4 4 4 5 5 5 5 6 7 8 10 11 12 13 12 12 12 12 12 12 12 13 13 13 14 14 14 15 15 15 15 15 16 16 16 16 16 16 16 15 14 13 12 12 12 12 12 13 13 14 15 15 16 16 16 15 16 18 20 21 21 21 22 22 23 24 23 23 24 24 23 21 19 19 21 25 28 28 28
15 14 12 10 9 7 6 6 6 6 6 6 6 6 6 7 9 10 12 12 12 12 12 11 12 12 12 12 13 13 13 13 14 14 15 15 15 15 15 16 16 16 16 16 15 15 14 14 13 12 12 13 13 13 14 14 15 16 17 17 16 15 15 17 19 20 20 21 21 21 22 23 23 23 23 24 24 23 21 19 20 23 28 30 30
20 18 15 13 11 10 9 9 9 9 8 8 7 6 6 7 8 9 10 11 11 11 11 11 11 11 12 12 12 13 13 13 13 14 14 15 15 15 15 16 16 16 16 16 15 14 14 14 13 13 13 13 13 13 14 15 16 17 17 17 17 15 15 16 18 19 20 20 20 21 21 22 23 23 22 22 23 24 24 22 20 21 25 30 31
24 22 20 17 15 13 13 12 12 11 11 10 9 7 7 7 8 9 10 10 11 11 11 11 11 11 11 12 12 13 13 13 13 13 14 15 15 15 16 16 16 17 16 16 15 14 14 13 13 13 13 13 13 14 15 16 17 18 18 18 17 16 15 16 17 19 19 20 20 20 20 21 21 22 22 22 22 23 24 23 22 21 23 27 31
28 26 25 22 20 18 17 16 15 14 14 13 11 10 9 9 9 10 10 10 11 11 12 12 11 11 11 11 12 12 13 13 13 13 14 14 15 15 16 16 17 17 17 16 15 14 14 13 13 13 12 13 13 14 16 17 18 19 19 19 18 17 16 16 17 19 19 20 20 20 20 21 21 21 21 22 21 21 22 22 23 23 22 25 28
31 30 28 27 25 24 22 21 19 18 17 16 15 13 12 11 11 11 11 11 11 12 12 12 12 11 11 10 11 11 12 13 13 13 13 13 14 14 15 16 16 16 16 15 15 14 14 13 13 12 12 13 14 15 17 18 20 21 21 20 19 18 18 18 19 20 20 20 20 20 20 21 22 21 21 21 21 20 20 20 21 21 22 23 25
32 32 31 30 29 28 27 26 24 22 21 19 18 16 15 14 13 13 13 13 13 13 13 13 13 12 11 10 10 11 11 12 12 12 11 12 12 13 13 14 15 15 14 14 14 14 14 14 13 12 12 13 14 16 18 19 21 22 22 22 20 20 20 20 20 21 21 20 20 20 20 21 22 22 20 19 19 18 18 18 19 20 21 22 23
32 32 32 31 31 30 29 28 27 26 24 22 21 19 18 17 16 16 15 14 14 14 14 14 13 12 11 10 10 10 11 11 11 11 10 10 10 10 11 12 13 14 13 13 14 14 14 14 13 13 12 13 14 16 17 19 21 22 22 22 21 20 20 20 21 21 21 21 21 20 20 20 21 20 19 19 19 19 19 19 20 21 22 24 25
31 32 32 32 31 31 30 29 29 28 27 25 23 22 21 20 19 18 17 16 16 16 16 15 14 13 11 10 10 10 10 10 10 10 10 10 9 9 10 11 12 12 13 14 14 15 15 15 15 14 13 13 14 15 16 19 20 21 21 21 20 19 19 19 20 21 21 21 21 21 21 21 20 20 19 19 20 20 20 21 22 24 27 29 31
28 30 31 31 30 30 30 30 30 30 29 27 25 24 23 22 21 20 19 18 18 18 17 16 15 13 11 11 10 10 10 10 10 10 10 9 8 8 8 9 10 11 12 13 14 15 15 15 15 15 14 13 13 14 15 18 20 20 20 19 18 17 18 19 20 21 22 23 23 24 24 25 25 25 24 24 25 25 25 27 29 31 33 34 36
29 30 30 29 28 28 29 29 30 31 30 28 26 25 25 24 23 22 21 20 20 20 19 18 16 14 12 11 11 10 10 10 10 10 10 9 8 7 7 8 8 9 10 11 12 14 14 14 15 15 14 13 13 14 15 17 18 18 18 17 16 16 17 18 20 21 22 24 25 26 27 28 28 29 29 30 31 31 32 32 33 34 35 35 36
31 31 30 28 27 26 27 28 29 30 30 29 27 27 26 26 25 24 23 23 22 22 22 20 18 15 13 12 12 11 11 10 10 9 9 9 8 6 5 5 6 7 8 9 10 11 12 13 13 13 13 12 12 13 14 16 16 16 16 15 15 15 16 18 19 21 22 23 24 25 26 27 27 28 28 29 29 30 30 31 31 31 31 32 32
34 33 31 29 28 26 25 27 28 29 30 30 28 28 27 27 26 25 25 25 25 24 23 21 19 16 14 13 13 12 12 11 10 9 8 8 6 4 4 3 4 5 6 7 8 9 10 10 10 10 10 10 10 10 12 13 13 13 13 13 13 14 15 16 18 19 20 21 22 22 22 23 24 24 23 24 24 25 25 25 26 26 26 26 26
37 35 33 30 29 28 25 24 26 28 30 30 30 28 28 28 28 27 27 27 26 25 24 22 20 18 16 15 14 13 13 12 11 10 9 8 5 3 2 1 2 3 4 4 5 6 7 7 7 7 6 6 6 7 9 10 11 11 12 12 12 13 13 14 15 16 17 18 18 18 18 18 19 19 18 19 19 19 19 19 20 20 20 20 20
39 39 37 34 33 30 27 25 25 26 28 29 30 29 28 28 28 28 28 28 27 26 24 23 21 19 17 16 15 14 14 13 12 11 11 9 5 2 1 0 0 1 2 3 3 4 4 4 4 4 3 2 3 4 6 8 9 9 9 9 9 8 8 9 10 11 12 12 13 13 13 13 13 13 13 13 13 13 13 13 13 13 14 14 14
42 41 41 40 38 35 32 30 28 27 26 27 28 29 29 29 29 30 30 29 28 27 25 24 22 21 19 17 17 17 16 14 12 13 13 11 7 3 3 2 2 1 0 2 2 2 2 2 2 2 2 2 1 1 3 4 6 6 6 5 5 4 4 5 5 5 5 6 6 7 7 7 7 7 7 7 7 7 7 7 7 7 7 8 9
44 43 42 43 42 39 37 34 31 28 26 26 26 27 27 27 29 31 32 31 30 28 26 25 23 22 21 19 18 18 17 14 13 14 15 14 9 4 4 3 3 2 1 1 1 1 2 2 2 2 2 3 3 3 4 4 4 4 4 3 3 3 2 3 3 3 4 4 3 3 3 3 2 2 2 2 2 1 1 1 0 1 2 3 4
46 45 43 43 43 42 40 37 34 31 29 27 27 27 26 26 28 31 32 33 32 31 29 26 24 23 22 20 20 20 18 16 15 16 17 16 11 6 4 5 4 3 2 2 2 2 2 3 4 4 5 5 5 6 6 6 6 6 5 5 5 4 4 4 5 5 6 7 8 9 9 9 9 8 7 6 6 5 5 5 5 5 6 7 7
Wind_Direction
64 64 63 61 58 57 55 55 56 56 53 46 42 44 43 43 45 45 49 48 48 50 50 49 49 50 53 57 63 67 71 76 83 97 123 146 159 166 170 169 164 154 144 133 123 116 111 109 107 104 101 97 90 85 79 74 69 63 59 57 52 46 39 34 30 28 28 30 35 40 41 39 31 24 18 14 10 7 4 1 360 359 1 3 3
60 59 57 60 60 59 58 56 55 53 50 44 42 47 47 46 48 47 49 51 52 52 54 53 51 52 53 56 61 64 65 66 68 73 82 108 140 158 166 169 166 160 153 144 134 125 119 114 109 103 97 91 85 81 78 74 71 66 62 55 46 40 37 33 32 34 40 45 49 46 41 35 28 23 18 14 10 7 5 3 3 5 7 8 8
55 57 55 55 57 59 58 55 50 48 46 43 44 50 53 52 52 51 50 53 56 55 55 54 53 55 55 56 59 61 62 62 62 63 67 76 99 132 152 158 158 157 154 147 139 130 122 115 107 101 95 90 85 82 79 75 71 66 57 49 44 42 40 40 44 49 54 54 50 43 38 33 28 23 18 14 11 8 7 7 9 11 11 10 10
52 56 59 58 57 57 54 50 47 44 46 49 50 53 55 54 55 55 54 55 58 58 56 56 56 57 58 58 59 60 61 61 60 61 62 65 74 93 121 140 145 146 146 143 137 131 124 117 109 103 98 92 87 82 78 74 67 60 54 51 50 50 51 54 58 59 57 51 45 40 36 32 27 22 17 13 11 10 11 12 14 14 13 10 10
57 57 61 61 61 59 55 52 53 53 53 54 55 57 58 57 57 58 58 59 61 59 57 58 59 60 61 62 63 63 61 59 60 61 61 63 68 76 91 111 125 129 131 130 127 123 117 112 107 104 100 94 89 82 78 72 69 65 63 60 60 60 62 63 62 58 52 46 41 38 33 29 25 20 15 13 13 14 15 17 17 16 13 11 10
62 59 59 59 60 61 59 59 61 61 61 61 62 62 62 61 60 61 61 63 65 64 62 63 63 64 65 65 65 65 62 60 61 62 63 65 68 74 82 94 104 110 112 112 111 107 104 103 101 100 96 91 87 84 81 78 75 71 69 67 67 67 66 63 58 52 47 43 38 34 31 27 22 18 15 15 16 16 18 19 19 16 14 13 12
62 59 58 59 59 60 60 61 63 63 64 67 68 66 65 63 63 64 64 65 68 68 68 67 67 67 69 68 65 64 63 63 64 65 65 66 70 75 81 88 95 99 101 100 99 98 96 96 94 92 90 89 88 86 82 79 75 73 72 71 70 68 63 58 53 49 44 39 35 31 28 24 20 17 16 17 18 18 20 20 19 18 17 15 14
63 60 58 60 60 60 62 62 63 65 65 68 68 67 66 66 66 66 66 66 67 68 69 68 67 67 70 71 68 67 68 68 68 68 69 70 72 76 80 85 89 93 94 95 93 92 92 91 90 89 89 88 85 82 79 77 76 75 74 72 69 65 61 56 51 46 41 36 32 28 25 22 19 18 18 19 19 20 21 19 20 22 20 16 15
64 63 62 62 62 62 64 64 64 66 66 67 67 67 68 68 68 68 67 68 68 68 69 69 68 67 70 72 72 71 70 70 70 70 71 71 72 74 78 81 84 87 89 89 89 88 88 88 88 87 85 84 82 81 80 79 78 76 75 72 68 64 58 53 47 42 38 34 30 27 24 21 19 18 19 19 20 22 21 20 22 23 21 18 17
63 65 65 65 65 65 66 67 68 67 68 68 68 68 69 68 69 70 69 69 69 69 70 71 70 70 71 72 72 72 71 71 71 71 72 72 72 73 75 78 80 82 84 85 86 86 86 86 85 84 83 83 83 83 82 80 78 76 73 69 64 58 53 48 43 40 36 33 31 28 25 22 20 18 18 19 20 22 21 20 23 22 20 17 17
64 65 67 68 68 68 68 68 69 70 70 70 70 69 69 68 67 68 69 70 71 71 71 71 72 72 71 70 70 71 70 71 71 71 72 72 73 73 75 77 78 80 81 82 83 83 83 83 82 82 82 83 82 81 79 77 75 72 67 61 56 51 47 44 41 39 36 34 31 28 25 22 20 18 17 18 19 20 19 18 21 20 17 16 16
66 65 67 69 69 69 69 68 70 71 72 72 71 70 69 69 67 66 67 69 70 72 71 71 72 71 70 70 70 68 67 69 69 68 69 71 72 72 74 76 77 78 79 80 80 81 80 80 80 80 80 79 78 76 74 70 66 62 57 53 50 46 44 41 39 37 35 33 31 28 25 22 19 17 16 16 17 17 16 15 16 16 14 13 15
66 66 67 69 70 70 70 70 71 71 72 73 72 71 71 71 70 68 67 67 69 71 71 71 71 71 70 69 70 68 67 66 66 66 68 69 70 71 71 73 74 75 75 76 77 77 78 78 77 76 75 73 72 70 66 63 59 55 52 48 45 42 39 37 34 33 32 32 31 27 24 21 19 17 16 15 14 15 14 11 11 12 11 11 14
67 67 68 69 71 72 71 71 71 71 72 72 72 72 72 72 72 71 69 68 68 69 70 70 70 71 71 70 70 71 69 66 66 67 68 68 69 70 70 71 71 72 72 73 73 74 74 74 73 71 69 67 66 64 61 59 55 52 49 46 42 39 36 34 31 30 30 30 29 26 23 21 19 16 15 14 13 13 14 12 8 8 9 10 13
69 68 69 71 73 74 73 73 73 73 72 72 72 72 71 72 72 72 72 70 68 68 68 69 68 69 70 69 69 71 71 69 67 67 67 67 67 67 68 69 70 69 70 70 69 70 70 70 68 67 65 64 62 60 58 55 53 50 47 43 40 36 34 32 31 30 30 29 28 25 23 21 19 16 15 14 12 11 14 14 8 6 7 10 12
71 71 71 73 75 76 75 74 73 72 72 72 71 71 70 70 71 72 72 71 69 67 66 66 66 66 67 67 67 68 69 69 67 65 65 64 64 64 64 65 67 68 68 68 67 66 66 66 65 63 61 59 57 55 53 50 49 46 44 41 38 35 33 31 30 30 30 29 27 25 24 22 20 17 15 14 13 12 13 15 11 6 7 10 13
74 74 73 74 75 77 76 75 73 71 71 71 70 69 68 66 67 69 70 70 68 67 66 65 64 64 64 65 65 64 64 65 65 64 63 63 63 63 62 61 63 66 66 65 65 64 63 62 62 60 57 54 51 48 45 43 42 41 39 38 36 34 32 29 29 28 29 29 27 27 25 23 21 19 16 15 15 14 13 14 14 10 9 11 14
73 75 75 77 78 78 78 78 78 75 71 69 70 69 68 66 65 66 67 68 67 66 65 65 63 63 62 62 62 61 60 60 61 60 60 61 61 62 62 60 60 62 63 62 62 61 60 59 59 58 54 51 47 43 40 38 37 36 35 34 34 33 31 29 27 27 27 29 28 27 26 24 23 21 18 17 18 17 15 15 16 15 14 15 17
68 73 74 78 80 79 78 77 78 77 72 69 71 71 71 69 66 65 65 65 65 64 64 64 62 61 61 61 60 58 58 57 56 55 55 55 55 56 57 56 56 57 58 58 57 57 57 56 54 53 50 47 44 40 37 35 33 34 33 32 32 31 30 28 27 26 26 28 28 28 27 25 25 23 20 20 21 20 19 18 19 22 22 22 22
63 65 68 71 74 74 75 74 75 75 72 70 70 68 68 67 66 65 64 64 64 62 63 63 61 60 59 59 59 57 56 55 53 51 50 49 48 48 49 49 49 50 52 54 53 53 53 53 50 47 45 42 39 37 34 31 30 31 31 31 30 29 29 29 28 27 26 27 28 28 28 26 26 25 23 22 23 24 23 22 25 30 30 28 27
58 57 59 61 64 64 67 68 67 68 67 65 65 63 61 62 62 63 63 63 63 61 61 61 60 59 58 57 56 55 54 53 50 48 45 44 43 42 42 41 41 42 44 46 46 47 47 48 46 43 41 38 35 33 31 29 27 28 29 29 29 28 28 29 29 28 27 28 28 28 28 26 25 25 25 24 25 27 28 27 31 35 36 34 30
56 54 52 54 57 58 60 56 56 58 57 56 58 56 54 56 58 59 59 59 60 59 58 59 58 56 55 55 54 52 52 50 48 45 42 40 39 38 37 37 37 36 37 38 39 40 40 42 42 40 37 35 32 30 28 26 25 26 27 27 27 27 27 28 29 29 28 28 28 28 28 25 24 25 26 27 28 31 33 32 35 38 38 35 32
60 57 51 49 51 52 53 50 49 52 50 49 51 48 45 47 50 52 53 52 53 54 54 54 54 52 50 50 48 47 47 45 43 41 38 37 36 34 34 34 34 32 32 33 33 34 35 36 37 37 35 32 30 28 26 24 23 24 25 25 25 24 25 27 29 29 30 30 29 29 28 24 23 25 29 31 32 35 36 35 37 39 38 36 33
65 60 53 48 44 41 41 38 38 44 46 43 43 41 38 37 40 43 44 43 45 48 49 49 49 48 46 45 43 41 41 40 38 38 36 35 34 32 31 30 30 29 28 28 28 29 32 32 32 33 33 30 28 27 25 24 24 24 22 23 23 23 24 26 27 29 31 32 31 31 28 24 24 28 33 37 38 38 38 36 38 39 37 35 34
69 63 56 51 41 30 24 22 22 29 39 39 34 32 30 29 31 33 34 35 36 38 41 42 42 42 40 40 39 37 37 37 36 36 34 33 33 32 29 27 27 26 24 24 25 25 26 28 27 29 30 28 26 26 25 23 25 25 24 25 25 23 24 26 26 28 31 32 33 32 28 25 28 33 37 41 42 40 38 37 37 37 37 36 36
71 68 60 54 43 29 14 6 6 15 27 32 29 24 21 20 23 25 24 24 25 27 29 31 34 33 32 34 35 32 33 34 35 35 34 32 32 32 29 25 23 23 20 20 23 22 22 24 24 25 28 26 25 26 24 23 25 28 29 29 28 24 23 25 26 26 30 33 34 33 29 29 33 37 41 44 44 41 39 37 36 36 37 37 37
71 69 62 56 47 36 17 3 358 5 17 22 23 22 18 15 17 19 19 15 15 17 18 18 21 21 21 22 25 25 26 28 30 33 33 31 31 30 27 24 21 19 16 14 18 19 19 21 21 22 25 25 25 26 24 23 26 31 33 30 27 23 22 25 26 26 29 33 34 34 32 32 37 40 44 46 45 43 41 38 36 36 37 38 39
88 66 55 51 48 40 26 8 356 359 8 13 17 19 19 15 13 14 14 12 12 12 9 8 9 10 10 11 12 15 17 18 21 25 26 26 27 26 23 22 19 16 13 9 12 15 16 18 18 18 22 23 23 26 25 23 24 28 31 28 24 21 21 24 26 26 30 34 35 35 34 36 40 43 47 48 46 45 43 41 38 36 37 39 40
157 81 46 41 37 34 27 11 358 356 2 8 11 14 15 13 12 12 12 12 13 13 8 4 3 3 3 3 4 7 10 10 10 12 15 17 19 19 18 17 15 13 12 8 8 11 13 15 15 17 21 23 23 26 28 25 22 23 25 25 22 19 21 24 25 26 31 35 36 37 37 38 42 46 49 50 48 47 46 44 41 37 36 39 40
172 178 50 27 21 18 15 3 353 351 356 3 5 7 10 11 12 12 13 13 14 13 10 7 4 2 1 1 0 2 3 3 3 5 7 9 10 11 11 12 13 14 15 12 12 14 14 15 16 18 22 23 23 26 31 27 21 18 18 20 20 20 22 25 26 28 32 37 38 39 39 40 44 48 51 52 51 50 49 47 44 40 36 37 39
168 177 193 288 351 346 347 344 340 341 348 355 359 3 7 11 13 12 12 13 12 12 11 10 7 4 2 1 359 359 359 359 359 360 1 2 3 4 6 9 11 14 16 15 15 18 18 16 16 18 21 21 23 28 31 24 17 15 16 18 20 21 23 27 29 31 35 39 40 41 41 42 46 50 52 53 53 52 51 49 47 42 38 36 36
175 175 184 200 247 297 307 310 318 323 333 343 350 357 2 7 10 8 7 9 9 9 9 8 7 5 3 1 359 358 357 357 357 357 357 358 359 359 0 3 6 8 9 8 8 11 14 15 15 16 19 20 22 25 23 16 13 16 18 19 21 23 27 30 32 34 38 41 42 42 42 44 47 50 51 52 53 53 51 49 47 44 39 36 35
192 189 191 197 210 241 268 281 290 301 312 325 335 344 351 356 1 0 359 1 3 3 4 3 3 1 360 359 357 356 355 355 354 354 353 354 355 356 356 356 358 360 1 360 359 1 5 8 10 11 14 18 19 19 17 15 15 19 23 24 24 25 29 34 36 37 39 43 44 44 43 44 47 49 50 49 50 51 50 48 46 44 41 37 36
214 209 208 206 209 223 240 259 271 278 289 300 312 325 335 341 348 351 352 353 355 356 356 357 356 356 355 354 353 352 352 352 351 350 351 351 352 353 352 352 354 356 357 358 358 359 2 4 6 6 8 14 17 18 19 20 21 25 29 32 31 30 31 35 39 40 40 43 45 45 44 43 45 48 49 47 45 46 47 45 44 43 41 38 37
233 226 222 219 219 224 231 242 254 262 270 280 290 304 315 323 333 340 343 344 345 347 348 349 349 348 348 348 347 347 347 347 347 347 347 348 349 351 350 350 353 355 357 358 360 2 5 8 9 7 9 15 22 25 25 25 27 31 34 36 38 36 34 37 42 43 42 43 45 46 45 43 43 45 48 46 43 41 41 41 39 39 38 37 37
242 239 235 233 234 236 237 238 243 250 257 266 274 283 294 305 315 323 330 333 333 334 337 340 341 341 342 342 340 341 342 342 343 344 344 346 348 349 349 351 353 356 357 360 2 4 7 12 14 13 14 20 27 30 30 30 32 36 38 39 41 40 37 39 44 45 44 44 44 44 45 43 41 42 45 46 43 40 39 37 35 33 33 34 36
242 245 245 244 245 246 248 245 245 247 250 255 260 266 274 285 297 305 313 318 319 321 325 330 333 335 336 337 335 335 337 337 339 341 341 344 346 348 350 353 355 356 359 2 3 5 8 11 15 18 19 23 28 32 35 36 37 40 42 43 44 44 42 42 44 46 45 45 44 43 42 42 41 41 42 44 43 40 39 37 35 31 29 31 34
241 245 248 251 253 255 257 256 253 252 250 250 252 253 259 268 278 288 295 302 306 309 314 319 324 327 330 332 331 331 331 333 335 338 340 343 344 347 352 356 358 0 3 3 3 4 7 9 12 17 22 27 32 35 38 40 43 45 47 48 46 45 45 45 46 47 45 44 44 41 39 39 39 40 41 42 42 41 40 39 36 34 32 32 34
242 245 248 252 256 260 262 262 261 260 256 253 251 250 252 257 264 273 280 286 291 296 302 309 314 319 324 326 327 326 326 328 331 334 339 341 342 347 353 356 1 6 7 5 3 4 6 8 10 15 22 29 35 39 42 44 47 50 53 53 50 48 48 49 49 48 46 44 42 39 36 35 37 39 41 41 41 41 42 42 40 39 41 41 41
244 246 248 252 256 259 261 263 264 264 263 259 255 251 251 253 257 262 269 274 279 285 292 299 306 311 317 320 321 320 319 322 326 330 336 339 342 349 354 357 4 10 11 10 7 5 7 10 14 18 22 29 37 42 45 47 50 54 57 58 55 52 51 50 49 49 47 45 43 41 37 35 37 40 44 47 48 49 51 54 55 54 55 56 57
248 249 250 251 253 256 258 260 262 263 264 262 259 255 252 253 256 258 262 267 272 278 284 292 299 304 309 312 312 313 312 315 320 325 330 336 343 351 355 359 6 11 14 15 13 10 10 12 19 25 28 33 41 46 48 51 53 57 60 60 58 56 53 51 50 49 49 48 47 46 45 44 44 47 51 57 62 66 68 69 71 72 73 75 77
247 248 250 251 252 254 256 257 259 259 260 260 259 257 255 254 257 259 261 264 268 272 278 285 291 296 300 302 301 302 303 307 312 317 322 330 342 352 355 359 6 10 14 15 14 15 14 13 19 28 33 38 44 48 51 53 55 58 61 61 60 60 58 57 57 58 59 59 59 59 60 62 66 68 71 75 77 80 81 82 85 87 89 90 91
249 247 248 249 250 252 255 256 258 258 257 256 256 255 255 255 257 259 261 263 266 270 275 279 284 289 291 291 291 291 293 298 303 309 315 324 337 350 356 1 6 11 14 14 14 17 16 14 18 25 32 38 43 48 53 54 55 58 61 61 63 66 68 69 72 74 77 79 81 82 82 84 87 90 92 94 95 96 96 97 97 98 97 97 96
250 248 246 246 246 247 250 252 254 256 256 254 253 252 253 253 255 258 260 262 265 268 272 275 279 283 283 282 281 282 284 288 293 300 308 318 331 347 358 4 9 16 18 16 17 20 19 17 18 23 29 33 39 48 55 56 58 61 64 65 68 74 79 83 85 87 90 93 95 96 97 98 98 98 99 101 101 101 102 101 101 100 98 97 95
241 243 243 244 244 243 243 245 248 250 252 253 252 250 250 250 252 255 258 261 263 266 269 272 276 278 278 274 273 274 276 280 285 291 300 308 320 339 356 8 18 25 26 22 23 25 26 23 20 22 29 34 38 49 58 61 64 69 72 76 80 85 89 93 95 96 98 100 101 103 103 104 104 103 104 103 103 102 102 101 100 98 96 94 91
237 239 240 239 240 241 241 242 245 247 248 250 249 248 248 248 250 252 256 259 262 264 267 270 274 275 274 270 266 266 268 273 278 285 293 298 310 329 347 6 26 38 39 35 32 33 34 30 24 23 31 39 46 57 68 72 77 83 88 91 95 98 101 103 102 103 105 105 104 105 106 107 107 107 107 106 106 105 104 102 100 98 95 92 89
240 240 239 237 237 239 241 245 248 250 250 251 250 249 247 247 248 250 253 257 260 264 267 269 272 273 271 266 262 261 262 266 273 283 288 291 298 311 321 356 32 49 57 55 47 45 43 38 29 24 33 49 63 74 85 90 94 101 106 108 109 108 108 108 108 109 110 110 108 107 108 109 109 109 108 108 107 107 106 104 103 100 96 92 87
240 240 240 239 238 237 238 242 247 252 255 256 256 255 252 250 250 250 252 255 259 262 265 268 269 269 267 263 260 258 257 261 270 278 282 285 285 268 237 205 120 86 80 76 68 57 51 45 34 17 13 42 86 101 106 109 114 119 124 125 124 120 116 117 117 116 117 117 117 116 115 114 112 110 109 109 107 106 105 103 101 98 93 88 82
242 241 240 240 240 238 237 238 243 249 255 258 258 259 259 256 254 254 255 257 259 261 263 264 265 265 263 260 258 256 256 259 266 272 276 279 276 243 211 205 190 181 99 79 78 59 35 29 29 1 333 322 274 178 156 143 139 141 144 148 151 145 140 140 141 142 140 136 131 130 132 130 127 124 121 117 113 109 105 101 95 86 77 70 62
243 243 240 239 241 241 238 239 243 248 253 256 259 261 262 261 260 260 262 263 262 262 262 262 262 262 259 256 254 254 255 256 262 268 272 274 269 237 208 216 213 213 235 48 57 35 352 333 327 311 297 288 276 255 238 223 209 198 195 200 205 205 208 212 215 218 219 222 227 229 229 222 212 206 202 195 194 188 158 149 133 358 341 348 359
245 246 244 242 243 243 239 239 243 247 250 256 262 264 265 265 265 265 266 267 267 267 266 265 263 261 258 253 250 251 252 254 256 261 266 269 266 245 217 220 231 250 277 314 348 352 334 311 305 303 295 285 276 272 266 258 253 249 248 252 255 258 262 263 259 256 257 261 264 264 265 266 267 271 273 274 273 276 277 274 273 276 280 287 296
Height
10986 10987 10987 10987 10985 10983 10982 10982 10982 10980 10979 10978 10977 10976 10975 10973 10972 10971 10970 10969 10967 10965 10963 10962 10960 10958 10957 10955 10953 10952 10951 10951 10951 10951 10951 10952 10952 10953 10954 10955 10955 10956 10957 10958 10958 10959 10959 10959 10959 10960 10960 10960 10960 10960 10960 10960 10960 10960 10960 10959 10959 10958 10957 10956 10956 10955 10954 10953 10952 10952 10951 10950 10948 10947 10946 10944 10942 10940 10938 10936 10934 10931 10929 10926 10923
10989 10989 10989 10988 10987 10986 10986 10985 10984 10983 10982 10981 10979 10978 10977 10976 10975 10974 10972 10970 10969 10967 10965 10964 10962 10961 10958 10956 10955 10953 10952 10952 10951 10951 10951 10952 10952 10953 10953 10954 10955 10957 10957 10958 10959 10959 10960 10960 10960 10961 10961 10961 10961 10961 10961 10961 10961 10961 10961 10960 10960 10959 10958 10957 10957 10956 10955 10954 10954 10953 10952 10951 10949 10948 10946 10945 10943 10941 10938 10936 10934 10931 10929 10926 10923
10992 10991 10990 10989 10989 10989 10988 10988 10987 10985 10984 10983 10982 10981 10980 10979 10977 10976 10974 10972 10970 10969 10967 10966 10965 10963 10960 10958 10957 10955 10954 10953 10953 10952 10952 10952 10952 10953 10954 10954 10956 10957 10958 10959 10960 10960 10961 10961 10961 10962 10962 10962 10962 10963 10963 10963 10962 10962 10962 10961 10961 10960 10959 10959 10958 10957 10956 10956 10955 10954 10953 10952 10950 10949 10947 10945 10943 10941 10939 10936 10934 10931 10929 10926 10923
10996 10994 10993 10992 10992 10991 10990 10989 10988 10987 10986 10985 10984 10983 10982 10981 10979 10977 10975 10973 10971 10970 10969 10968 10967 10965 10963 10961 10960 10958 10957 10956 10955 10955 10954 10954 10954 10954 10954 10955 10956 10958 10959 10960 10961 10961 10962 10962 10962 10963 10963 10963 10963 10964 10964 10964 10963 10963 10963 10962 10962 10961 10960 10960 10959 10958 10958 10957 10956 10955 10954 10952 10951 10949 10948 10946 10944 10941 10939 10937 10934 10932 10929 10927 10924
11000 10998 10997 10996 10995 10994 10993 10992 10990 10989 10988 10987 10986 10985 10984 10982 10981 10979 10977 10975 10974 10973 10972 10971 10970 10969 10967 10965 10963 10962 10960 10959 10959 10958 10957 10956 10956 10955 10956 10957 10958 10959 10960 10961 10962 10962 10963 10963 10963 10964 10964 10964 10964 10965 10965 10965 10965 10964 10964 10963 10963 10962 10962 10961 10961 10960 10959 10958 10957 10956 10955 10953 10952 10950 10949 10947 10944 10942 10940 10937 10935 10933 10930 10928 10925
11002 11001 11000 10999 10998 10997 10995 10994 10993 10992 10990 10989 10988 10987 10986 10984 10983 10982 10980 10979 10978 10976 10976 10975 10974 10972 10970 10968 10967 10965 10964 10963 10962 10961 10961 10960 10959 10958 10958 10959 10960 10961 10962 10963 10963 10964 10964 10964 10965 10965 10965 10965 10966 10966 10966 10966 10966 10965 10965 10965 10965 10964 10964 10963 10963 10962 10961 10960 10959 10957 10956 10954 10953 10951 10949 10947 10945 10943 10940 10938 10936 10934 10931 10929 10926
11004 11003 11002 11001 11000 10999 10998 10997 10996 10994 10993 10992 10991 10989 10988 10987 10986 10985 10984 10984 10982 10981 10980 10978 10977 10974 10973 10971 10970 10969 10968 10967 10966 10965 10964 10963 10962 10961 10961 10961 10962 10963 10964 10965 10965 10966 10966 10966 10966 10966 10967 10967 10967 10967 10967 10967 10967 10967 10967 10967 10966 10966 10966 10965 10964 10963 10962 10961 10960 10958 10957 10955 10954 10952 10950 10948 10946 10943 10941 10939 10937 10935 10932 10930 10927
11006 11005 11004 11003 11002 11002 11001 11000 10998 10997 10996 10995 10993 10992 10991 10990 10990 10989 10988 10987 10986 10984 10983 10981 10979 10978 10976 10975 10975 10973 10972 10971 10970 10969 10968 10967 10966 10965 10965 10964 10965 10965 10966 10966 10967 10968 10968 10968 10968 10969 10969 10969 10969 10969 10969 10969 10969 10969 10969 10969 10968 10968 10967 10967 10966 10965 10964 10962 10961 10960 10958 10956 10955 10953 10951 10948 10946 10944 10942 10940 10938 10936 10933 10931 10928
11008 11007 11006 11005 11005 11005 11004 11003 11001 11000 10999 10998 10997 10996 10995 10994 10994 10993 10991 10990 10989 10987 10985 10984 10982 10982 10981 10980 10979 10978 10976 10975 10974 10973 10972 10971 10970 10969 10968 10968 10968 10968 10968 10969 10969 10970 10970 10971 10971 10971 10971 10971 10971 10971 10971 10971 10971 10971 10971 10971 10970 10970 10969 10968 10967 10966 10965 10963 10962 10961 10959 10957 10955 10953 10951 10949 10948 10946 10943 10941 10939 10937 10934 10931 10928
11011 11010 11009 11008 11008 11007 11007 11006 11005 11004 11002 11001 11001 11000 10999 10998 10997 10996 10994 10993 10991 10990 10988 10987 10986 10986 10985 10984 10983 10982 10981 10979 10978 10977 10976 10975 10974 10973 10972 10972 10971 10971 10972 10972 10972 10973 10973 10974 10974 10973 10973 10973 10973 10973 10974 10973 10973 10973 10973 10972 10972 10971 10970 10969 10968 10967 10966 10965 10963 10962 10960 10958 10956 10954 10952 10950 10949 10947 10944 10942 10940 10938 10935 10932 10929
11014 11013 11012 11011 11011 11010 11010 11009 11008 11007 11006 11005 11004 11003 11002 11001 11000 10999 10997 10996 10995 10993 10992 10991 10990 10990 10989 10988 10987 10985 10984 10983 10982 10981 10980 10979 10978 10977 10976 10975 10975 10975 10975 10975 10976 10976 10976 10976 10976 10976 10976 10976 10976 10976 10976 10976 10976 10975 10975 10974 10973 10973 10972 10971 10970 10968 10967 10966 10964 10962 10961 10959 10957 10955 10953 10951 10949 10947 10945 10943 10941 10938 10936 10932 10929
11017 11016 11015 11014 11013 11013 11012 11012 11011 11010 11009 11008 11007 11006 11005 11004 11003 11002 11001 11000 10998 10997 10996 10995 10994 10993 10992 10991 10990 10989 10987 10986 10985 10984 10983 10982 10981 10981 10980 10979 10979 10979 10979 10979 10979 10979 10979 10979 10979 10979 10979 10979 10979 10978 10978 10978 10978 10977 10977 10976 10975 10974 10973 10972 10971 10970 10969 10967 10965 10963 10961 10959 10957 10955 10953 10952 10950 10948 10946 10944 10941 10939 10936 10933 10929
11020 11019 11018 11017 11016 11015 11015 11014 11014 11013 11012 11011 11010 11010 11009 11007 11006 11005 11004 11003 11002 11000 10999 10998 10997 10996 10995 10994 10993 10992 10990 10989 10988 10988 10987 10986 10984 10984 10983 10982 10982 10982 10982 10982 10982 10982 10982 10982 10982 10982 10982 10981 10981 10980 10980 10980 10980 10979 10978 10978 10977 10976 10975 10974 10973 10971 10970 10968 10966 10964 10962 10960 10958 10956 10954 10952 10950 10948 10946 10944 10942 10939 10937 10934 10930
11023 11022 11021 11020 11019 11018 11018 11017 11017 11016 11015 11014 11014 11013 11012 11010 11009 11008 11007 11006 11006 11004 11003 11002 11001 11000 10998 10997 10996 10995 10994 10993 10992 10991 10990 10989 10988 10987 10986 10986 10986 10986 10985 10985 10986 10986 10985 10985 10985 10984 10984 10983 10983 10983 10982 10982 10982 10981 10980 10979 10978 10977 10976 10975 10974 10973 10971 10969 10967 10965 10963 10960 10958 10956 10954 10952 10951 10949 10947 10945 10942 10940 10937 10934 10931
11025 11024 11023 11022 11022 11021 11021 11020 11019 11019 11018 11017 11017 11016 11015 11013 11012 11011 11010 11009 11009 11008 11006 11005 11004 11003 11001 11000 10999 10998 10997 10996 10995 10994 10993 10993 10992 10991 10990 10990 10989 10989 10988 10989 10989 10988 10988 10987 10987 10987 10986 10986 10985 10985 10985 10984 10984 10983 10982 10981 10980 10979 10978 10977 10975 10973 10971 10969 10967 10965 10963 10961 10959 10957 10955 10953 10951 10949 10947 10945 10943 10940 10938 10935 10932
11028 11027 11026 11025 11024 11024 11023 11022 11021 11021 11020 11019 11019 11018 11017 11016 11015 11014 11013 11012 11011 11011 11009 11008 11007 11006 11005 11003 11002 11001 11000 10999 10998 10997 10996 10996 10995 10994 10994 10993 10992 10992 10992 10991 10991 10991 10990 10990 10989 10989 10988 10988 10988 10987 10987 10986 10985 10984 10984 10983 10982 10980 10979 10978 10976 10974 10972 10970 10968 10966 10964 10962 10960 10958 10956 10954 10952 10950 10948 10945 10943 10941 10939 10936 10933
11031 11030 11029 11028 11027 11026 11026 11025 11024 11023 11022 11022 11021 11021 11020 11019 11018 11017 11015 11014 11013 11013 11012 11011 11010 11009 11007 11006 11005 11004 11003 11002 11001 11000 10999 10999 10998 10998 10997 10997 10996 10995 10995 10994 10994 10993 10993 10992 10991 10991 10991 10990 10990 10989 10989 10988 10987 10986 10985 10984 10983 10982 10980 10979 10977 10975 10973 10971 10969 10967 10965 10963 10961 10959 10957 10955 10952 10950 10948 10946 10944 10942 10940 10937 10935
11033 11032 11032 11031 11030 11029 11028 11027 11026 11025 11024 11024 11023 11023 11022 11021 11020 11019 11018 11016 11016 11015 11014 11013 11013 11011 11010 11009 11008 11007 11006 11005 11004 11003 11003 11002 11002 11001 11000 11000 10999 10998 10997 10997 10996 10995 10995 10994 10994 10993 10993 10992 10991 10991 10990 10989 10988 10988 10987 10985 10984 10983 10981 10980 10978 10976 10974 10972 10970 10968 10966 10964 10962 10960 10958 10956 10953 10951 10949 10947 10945 10942 10941 10939 10936
11034 11034 11034 11033 11032 11031 11030 11030 11028 11027 11026 11026 11025 11025 11024 11023 11022 11021 11020 11019 11018 11017 11016 11015 11015 11014 11013 11012 11011 11009 11008 11007 11006 11006 11006 11005 11004 11004 11003 11002 11001 11000 10999 10999 10998 10997 10996 10996 10995 10995 10994 10994 10993 10992 10991 10991 10990 10989 10988 10987 10985 10984 10982 10981 10979 10977 10975 10974 10971 10969 10967 10965 10963 10961 10959 10957 10955 10953 10951 10948 10946 10944 10942 10940 10937
11035 11035 11035 11034 11034 11033 11032 11031 11030 11029 11028 11028 11027 11026 11025 11024 11023 11022 11021 11021 11020 11019 11018 11017 11016 11016 11015 11014 11013 11012 11011 11010 11009 11009 11008 11007 11007 11006 11005 11004 11003 11002 11001 11001 11000 10999 10998 10998 10997 10996 10996 10995 10994 10993 10993 10992 10991 10990 10989 10988 10986 10985 10984 10982 10980 10978 10976 10975 10973 10971 10969 10967 10964 10962 10961 10958 10956 10954 10952 10949 10947 10945 10943 10941 10939
11036 11036 11035 11035 11035 11034 11034 11033 11032 11030 11030 11029 11029 11028 11027 11026 11025 11024 11023 11022 11021 11021 11020 11018 11018 11017 11016 11016 11015 11014 11013 11012 11011 11011 11010 11009 11009 11008 11007 11006 11005 11004 11003 11002 11002 11001 11000 10999 10998 10998 10997 10996 10996 10995 10994 10993 10992 10991 10990 10989 10987 10986 10985 10983 10981 10979 10977 10976 10974 10972 10970 10968 10965 10963 10961 10959 10957 10955 10952 10950 10948 10946 10945 10943 10940
11037 11037 11036 11036 11035 11035 11035 11034 11033 11032 11031 11030 11030 11029 11028 11027 11027 11026 11025 11024 11023 11022 11021 11020 11019 11018 11018 11017 11016 11016 11015 11014 11013 11012 11012 11011 11010 11009 11008 11007 11006 11006 11005 11004 11003 11002 11002 11001 11000 10999 10998 10998 10997 10996 10995 10994 10993 10992 10991 10989 10988 10987 10986 10984 10982 10980 10978 10977 10975 10973 10971 10969 10966 10964 10962 10960 10958 10956 10954 10952 10950 10948 10946 10944 10941
11038 11038 11037 11037 11037 11036 11036 11036 11035 11033 11033 11032 11031 11030 11030 11029 11028 11027 11026 11025 11024 11023 11022 11021 11020 11020 11019 11018 11018 11017 11016 11015 11014 11014 11013 11012 11011 11010 11010 11009 11008 11007 11006 11005 11005 11004 11003 11002 11001 11000 11000 10999 10998 10997 10996 10995 10994 10993 10992 10990 10989 10988 10986 10985 10983 10981 10979 10978 10976 10974 10972 10970 10967 10965 10963 10961 10959 10958 10955 10953 10951 10949 10947 10945 10943
11039 11039 11039 11038 11038 11037 11037 11037 11036 11035 11034 11033 11032 11032 11031 11031 11030 11029 11027 11027 11026 11024 11023 11022 11021 11021 11020 11019 11019 11018 11017 11016 11015 11015 11014 11013 11012 11011 11011 11010 11009 11008 11007 11007 11006 11005 11004 11004 11003 11002 11001 11000 10999 10998 10997 10996 10995 10994 10992 10991 10990 10988 10987 10985 10984 10982 10980 10978 10977 10975 10974 10971 10969 10967 10965 10963 10961 10959 10957 10955 10953 10950 10948 10947 10944
11040 11040 11039 11039 11039 11038 11038 11038 11038 11037 11036 11035 11034 11033 11032 11031 11030 11030 11029 11028 11027 11026 11024 11023 11022 11022 11021 11020 11020 11019 11018 11017 11016 11015 11015 11014 11013 11012 11011 11011 11010 11009 11008 11008 11007 11007 11006 11005 11004 11003 11002 11001 11000 10999 10998 10997 10996 10994 10993 10992 10991 10989 10988 10986 10984 10983 10981 10979 10978 10977 10975 10973 10970 10968 10966 10964 10963 10961 10959 10957 10955 10952 10950 10948 10946
11040 11040 11040 11039 11039 11039 11039 11039 11039 11038 11037 11036 11036 11034 11033 11033 11032 11031 11030 11029 11028 11027 11026 11025 11024 11023 11022 11022 11021 11020 11019 11018 11017 11016 11015 11015 11014 11013 11012 11012 11011 11010 11009 11009 11009 11008 11007 11006 11005 11004 11003 11002 11001 11000 10999 10998 10997 10995 10994 10993 10991 10990 10988 10987 10985 10984 10982 10980 10979 10978 10976 10974 10971 10969 10968 10966 10965 10963 10961 10959 10957 10954 10952 10950 10948
11041 11040 11040 11040 11040 11040 11039 11039 11039 11039 11038 11038 11037 11036 11035 11034 11033 11032 11031 11030 11029 11028 11027 11026 11025 11024 11024 11022 11022 11021 11020 11019 11018 11017 11016 11016 11015 11014 11013 11013 11012 11011 11011 11010 11009 11009 11008 11007 11006 11005 11004 11003 11002 11001 11000 10999 10997 10996 10995 10993 10992 10990 10989 10988 10986 10985 10983 10982 10980 10979 10977 10975 10973 10971 10969 10968 10967 10965 10962 10960 10958 10956 10954 10952 10950
11041 11041 11040 11040 11040 11040 11040 11040 11040 11040 11039 11038 11038 11037 11036 11035 11034 11033 11033 11032 11031 11029 11029 11028 11026 11025 11025 11023 11022 11022 11021 11020 11019 11018 11017 11017 11016 11015 11014 11014 11013 11012 11012 11011 11010 11009 11009 11008 11007 11006 11005 11004 11003 11001 11000 10999 10998 10997 10996 10994 10992 10991 10990 10988 10987 10986 10984 10983 10981 10980 10978 10976 10974 10973 10971 10970 10968 10966 10964 10962 10960 10958 10956 10954 10952
11040 11040 11040 11040 11040 11040 11040 11040 11040 11040 11039 11039 11038 11037 11037 11036 11035 11035 11034 11033 11032 11031 11030 11029 11028 11027 11026 11025 11023 11022 11021 11020 11019 11019 11018 11017 11016 11016 11015 11014 11014 11013 11012 11011 11010 11010 11009 11008 11007 11006 11005 11004 11003 11002 11001 11000 10999 10998 10996 10995 10994 10992 10991 10990 10988 10987 10986 10984 10983 10981 10979 10978 10976 10974 10973 10971 10970 10968 10966 10964 10962 10960 10958 10956 10954
11039 11040 11040 11040 11040 11040 11040 11040 11040 11040 11040 11039 11039 11038 11038 11037 11036 11036 11035 11034 11033 11032 11031 11030 11029 11028 11027 11026 11024 11023 11022 11021 11020 11019 11018 11017 11017 11016 11016 11015 11015 11014 11013 11012 11011 11010 11009 11008 11008 11007 11006 11005 11004 11003 11002 11001 11000 10999 10997 10996 10995 10993 10992 10991 10989 10988 10987 10985 10984 10983 10981 10979 10978 10976 10974 10973 10972 10970 10969 10966 10964 10962 10961 10958 10956
11038 11039 11039 11040 11040 11040 11040 11039 11039 11040 11040 11039 11039 11039 11038 11038 11037 11036 11036 11035 11034 11033 11032 11030 11030 11029 11028 11026 11025 11024 11023 11022 11021 11020 11019 11018 11017 11017 11016 11015 11015 11014 11013 11013 11012 11011 11010 11009 11008 11007 11007 11006 11005 11004 11003 11002 11001 11000 10998 10997 10996 10994 10993 10992 10990 10989 10988 10987 10986 10984 10983 10981 10980 10978 10976 10975 10973 10972 10971 10969 10967 10965 10963 10961 10959
11037 11038 11038 11039 11039 11039 11039 11039 11039 11039 11039 11039 11039 11039 11039 11038 11038 11037 11036 11036 11035 11033 11032 11031 11030 11029 11028 11027 11026 11025 11024 11023 11022 11021 11020 11019 11018 11017 11016 11016 11015 11014 11014 11013 11012 11011 11011 11010 11009 11008 11008 11007 11006 11005 11004 11003 11002 11001 10999 10998 10996 10995 10994 10993 10991 10990 10989 10988 10987 10986 10984 10983 10981 10980 10979 10977 10975 10974 10973 10971 10969 10967 10965 10963 10961
11036 11036 11037 11037 11037 11038 11038 11038 11038 11039 11039 11039 11039 11039 11039 11038 11038 11038 11037 11036 11035 11034 11033 11031 11030 11029 11028 11027 11026 11025 11024 11023 11022 11021 11020 11019 11018 11018 11017 11016 11015 11014 11014 11013 11012 11011 11011 11010 11009 11009 11008 11007 11006 11006 11005 11004 11003 11002 11000 10999 10997 10996 10994 10993 10992 10991 10990 10989 10988 10987 10986 10985 10983 10982 10981 10979 10977 10976 10975 10973 10971 10969 10967 10965 10963
11034 11035 11035 11035 11036 11036 11037 11037 11037 11038 11038 11038 11039 11039 11039 11039 11038 11038 11037 11037 11035 11034 11033 11032 11030 11029 11028 11027 11026 11025 11024 11023 11022 11022 11021 11020 11019 11018 11017 11016 11015 11014 11014 11013 11012 11011 11010 11009 11009 11008 11008 11007 11007 11006 11005 11004 11003 11002 11001 11000 10998 10997 10995 10994 10994 10993 10992 10991 10990 10989 10988 10986 10985 10984 10983 10981 10980 10978 10977 10975 10973 10971 10969 10967 10965
11033 11033 11033 11033 11034 11034 11035 11035 11036 11036 11037 11037 11037 11038 11038 11038 11038 11038 11037 11037 11036 11034 11033 11032 11031 11029 11028 11027 11026 11025 11024 11024 11023 11022 11021 11020 11019 11018 11017 11016 11015 11014 11014 11013 11012 11011 11010 11010 11009 11008 11008 11007 11007 11006 11005 11004 11004 11003 11002 11001 10999 10998 10997 10996 10995 10994 10993 10992 10991 10990 10989 10988 10987 10986 10985 10983 10982 10981 10979 10977 10976 10974 10972 10970 10968
11031 11032 11032 11032 11032 11032 11033 11033 11034 11034 11035 11035 11036 11036 11037 11037 11037 11037 11037 11037 11036 11034 11033 11032 11031 11030 11029 11028 11027 11026 11025 11024 11023 11022 11021 11020 11019 11018 11017 11016 11015 11015 11014 11013 11012 11012 11011 11010 11009 11008 11008 11007 11007 11006 11006 11005 11004 11003 11002 11001 11000 10999 10998 10997 10996 10995 10994 10993 10992 10991 10990 10989 10988 10987 10986 10985 10984 10982 10981 10980 10978 10976 10975 10973 10970
11029 11030 11030 11030 11031 11031 11031 11031 11032 11032 11033 11033 11034 11034 11035 11036 11036 11036 11036 11036 11035 11034 11033 11032 11031 11030 11029 11028 11027 11026 11025 11024 11023 11022 11021 11020 11019 11018 11017 11017 11016 11015 11014 11013 11013 11012 11011 11010 11009 11009 11008 11008 11007 11007 11006 11005 11004 11004 11003 11002 11001 11000 10999 10998 10997 10996 10995 10994 10993 10992 10991 10991 10990 10989 10988 10987 10985 10984 10983 10981 10980 10979 10977 10976 10973
11026 11027 11028 11029 11029 11029 11029 11030 11030 11030 11031 11031 11031 11032 11033 11033 11034 11034 11034 11034 11034 11033 11032 11031 11031 11030 11029 11029 11028 11026 11025 11024 11024 11023 11022 11021 11020 11019 11018 11017 11016 11015 11015 11014 11013 11012 11011 11010 11010 11009 11008 11008 11007 11007 11006 11006 11005 11004 11004 11003 11002 11001 11000 10999 10998 10997 10996 10995 10994 10994 10993 10992 10991 10990 10989 10988 10987 10986 10985 10983 10982 10981 10980 10978 10976
11024 11025 11026 11027 11027 11028 11028 11028 11028 11029 11029 11029 11029 11030 11030 11031 11032 11032 11032 11032 11032 11032 11031 11031 11030 11029 11029 11028 11027 11026 11026 11025 11024 11023 11022 11021 11020 11019 11019 11018 11017 11016 11015 11015 11014 11013 11012 11011 11010 11009 11009 11008 11008 11007 11007 11006 11006 11005 11005 11004 11003 11002 11001 11001 11000 10999 10998 10997 10996 10995 10994 10993 10992 10992 10991 10990 10989 10988 10987 10985 10984 10983 10981 10980 10979
11021 11022 11023 11024 11025 11025 11026 11026 11027 11027 11027 11027 11028 11028 11028 11029 11029 11029 11030 11030 11030 11030 11029 11029 11029 11028 11028 11028 11027 11026 11025 11025 11024 11024 11023 11022 11021 11020 11020 11019 11018 11017 11016 11016 11015 11014 11013 11012 11011 11010 11009 11009 11008 11008 11008 11007 11007 11006 11006 11005 11005 11004 11003 11002 11001 11001 11000 10999 10998 10997 10996 10995 10994 10993 10992 10992 10991 10990 10989 10988 10986 10985 10983 10982 10981
11019 11020 11021 11022 11022 11023 11024 11024 11025 11025 11025 11026 11026 11026 11026 11027 11027 11027 11027 11028 11028 11028 11028 11028 11028 11027 11027 11027 11026 11026 11025 11025 11024 11024 11023 11022 11022 11021 11020 11020 11019 11018 11017 11017 11016 11015 11014 11013 11012 11011 11011 11010 11010 11009 11009 11009 11008 11008 11007 11007 11006 11006 11005 11004 11003 11003 11002 11001 11000 10999 10998 10997 10996 10995 10995 10994 10993 10992 10991 10990 10988 10987 10986 10985 10984
11015 11016 11017 11018 11020 11021 11022 11023 11023 11023 11024 11024 11024 11025 11025 11025 11025 11025 11025 11025 11025 11025 11026 11026 11026 11026 11026 11026 11026 11025 11025 11024 11024 11024 11023 11022 11022 11021 11021 11020 11019 11019 11018 11017 11016 11015 11014 11014 11013 11012 11012 11011 11011 11011 11010 11010 11010 11009 11009 11008 11008 11007 11007 11006 11006 11005 11004 11003 11002 11002 11001 11000 10999 10998 10997 10996 10995 10995 10994 10993 10991 10990 10989 10988 10987
11012 11013 11013 11014 11016 11018 11019 11021 11021 11022 11022 11022 11023 11023 11023 11023 11023 11023 11024 11024 11023 11023 11024 11024 11024 11025 11025 11025 11024 11024 11024 11024 11024 11023 11023 11022 11022 11021 11021 11020 11020 11019 11019 11018 11017 11016 11015 11015 11014 11013 11013 11012 11012 11012 11011 11011 11011 11011 11010 11010 11010 11009 11009 11008 11008 11007 11006 11006 11005 11005 11004 11003 11002 11001 11001 11000 10998 10997 10997 10996 10995 10994 10992 10991 10990
11007 11009 11010 11011 11012 11014 11015 11017 11018 11019 11020 11021 11021 11021 11021 11021 11021 11021 11022 11021 11021 11021 11021 11022 11022 11023 11023 11023 11023 11023 11023 11023 11023 11023 11022 11022 11021 11021 11021 11021 11020 11020 11019 11018 11018 11017 11016 11015 11015 11014 11014 11013 11013 11012 11012 11012 11012 11012 11012 11012 11012 11011 11011 11010 11010 11009 11009 11008 11007 11007 11006 11006 11005 11004 11003 11002 11001 11000 10999 10998 10998 10996 10995 10994 10993
11001 11004 11006 11008 11009 11010 11010 11012 11013 11015 11016 11018 11018 11019 11019 11019 11019 11019 11019 11019 11019 11019 11019 11020 11021 11021 11022 11022 11022 11022 11022 11022 11022 11022 11022 11022 11021 11021 11021 11021 11021 11020 11020 11019 11018 11018 11017 11016 11015 11015 11014 11014 11013 11013 11013 11013 11013 11013 11013 11013 11013 11013 11013 11013 11012 11012 11011 11011 11010 11009 11009 11008 11007 11006 11006 11005 11004 11003 11002 11001 11000 10999 10997 10996 10995
10998 11000 11002 11004 11005 11005 11006 11006 11008 11010 11011 11013 11014 11015 11016 11016 11016 11017 11017 11017 11017 11017 11017 11018 11019 11020 11020 11020 11020 11021 11021 11021 11021 11021 11021 11021 11022 11022 11021 11021 11021 11020 11020 11019 11018 11018 11017 11017 11016 11015 11015 11014 11014 11014 11014 11014 11014 11014 11014 11014 11014 11014 11014 11014 11014 11014 11013 11013 11012 11012 11011 11010 11009 11009 11008 11007 11006 11005 11004 11002 11001 11000 10999 10998 10997
10996 10998 11000 11001 11001 11002 11003 11004 11005 11006 11007 11009 11010 11011 11012 11013 11013 11014 11014 11014 11014 11015 11015 11016 11017 11018 11018 11019 11019 11020 11020 11020 11020 11021 11021 11021 11021 11021 11021 11021 11020 11020 11020 11019 11018 11018 11017 11017 11016 11016 11015 11015 11014 11014 11014 11014 11014 11014 11015 11015 11015 11015 11015 11015 11015 11015 11015 11014 11014 11014 11013 11012 11011 11010 11010 11009 11008 11007 11006 11004 11003 11002 11001 11000 10999
10992 10994 10997 10998 10998 10999 11001 11003 11004 11004 11005 11007 11008 11009 11010 11010 11010 11011 11010 11011 11012 11012 11013 11014 11014 11016 11016 11017 11018 11018 11019 11019 11020 11020 11020 11020 11021 11021 11021 11020 11020 11020 11019 11018 11018 11018 11017 11017 11016 11016 11016 11015 11015 11015 11015 11015 11015 11015 11015 11016 11016 11016 11016 11016 11016 11016 11016 11015 11015 11014 11014 11013 11013 11012 11011 11010 11009 11008 11007 11006 11005 11004 11003 11001 11000
10988 10990 10993 10995 10996 10997 10998 10999 11000 11001 11002 11004 11005 11006 11008 11008 11008 11008 11007 11008 11009 11010 11011 11012 11012 11013 11014 11015 11016 11016 11017 11018 11019 11019 11019 11019 11020 11020 11020 11020 11019 11019 11019 11018 11018 11018 11017 11017 11017 11016 11016 11016 11016 11016 11016 11016 11016 11016 11016 11016 11016 11016 11017 11017 11017 11017 11016 11016 11015 11015 11014 11014 11013 11013 11012 11011 11010 11009 11009 11008 11007 11006 11004 11003 11002
10983 10985 10987 10990 10992 10994 10996 10997 10998 10998 11000 11001 11002 11003 11005 11006 11006 11006 11006 11006 11007 11008 11009 11010 11011 11012 11012 11013 11014 11014 11015 11017 11017 11018 11017 11017 11018 11019 11019 11019 11019 11019 11018 11018 11018 11018 11017 11017 11017 11017 11016 11016 11016 11016 11016 11016 11016 11016 11016 11016 11016 11016 11016 11016 11016 11016 11016 11016 11015 11015 11014 11014 11013 11012 11012 11011 11010 11010 11009 11008 11007 11006 11005 11004 11002
10979 10981 10984 10987 10989 10991 10993 10994 10995 10997 10998 11000 11000 11001 11002 11004 11005 11005 11005 11005 11005 11005 11007 11009 11010 11010 11010 11011 11012 11012 11014 11015 11016 11016 11016 11016 11017 11018 11019 11019 11018 11018 11018 11018 11018 11018 11017 11017 11017 11017 11016 11016 11016 11015 11015 11015 11015 11015 11016 11016 11016 11016 11016 11016 11016 11015 11015 11015 11015 11014 11014 11013 11012 11011 11011 11011 11010 11009 11008 11007 11006 11005 11004 11003 11002